[{"OBJECT_NAME":"HULIANWANG DIGUI-162","OBJECT_ID":"2026-047H","EPOCH":"2026-09-12T07:17:38.695776","MEAN_MOTION":13.29324447,"ECCENTRICITY":0.0001266,"INCLINATION":50.0055,"RA_OF_ASC_NODE":103.4753,"ARG_OF_PERICENTER":62.0962,"MEAN_ANOMALY":298.0038,"EPHEMERIS_TYPE":0,"CLASSIFICATION_TYPE":"U","NORAD_CAT_ID":68136,"ELEMENT_SET_NO":999,"REV_AT_EPOCH":2465,"BSTAR":0.000089604833,"MEAN_MOTION_DOT":-8.2e-7,"MEAN_MOTION_DDOT":0},{"OBJECT_NAME":"HULIANWANG DIGUI-163","OBJECT_ID":"2026-047J","EPOCH":"2026-09-11T23:52:04.607328","MEAN_MOTION":13.29329405,"ECCENTRICITY":0.00012047,"INCLINATION":50.0059,"RA_OF_ASC_NODE":104.5135,"ARG_OF_PERICENTER":61.9484,"MEAN_ANOMALY":298.1509,"EPHEMERIS_TYPE":0,"CLASSIFICATION_TYPE":"U","NORAD_CAT_ID":68137,"ELEMENT_SET_NO":999,"REV_AT_EPOCH":2462,"BSTAR":0.00009075,"MEAN_MOTION_DOT":-8.2e-7,"MEAN_MOTION_DDOT":0},{"OBJECT_NAME":"HULIANWANG DIGUI-164","OBJECT_ID":"2026-076A","EPOCH":"2026-09-12T07:25:38.252064","MEAN_MOTION":13.2440701,"ECCENTRICITY":0.00014777,"INCLINATION":86.5022,"RA_OF_ASC_NODE":14.4591,"ARG_OF_PERICENTER":113.6689,"MEAN_ANOMALY":246.46,"EPHEMERIS_TYPE":0,"CLASSIFICATION_TYPE":"U","NORAD_CAT_ID":68656,"ELEMENT_SET_NO":999,"REV_AT_EPOCH":2090,"BSTAR":-0.000035426327,"MEAN_MOTION_DOT":-1e-8,"MEAN_MOTION_DDOT":0},{"OBJECT_NAME":"HULIANWANG DIGUI-165","OBJECT_ID":"2026-076B","EPOCH":"2026-09-12T07:14:36.155040","MEAN_MOTION":13.24409785,"ECCENTRICITY":0.00012455,"INCLINATION":86.5045,"RA_OF_ASC_NODE":14.4912,"ARG_OF_PERICENTER":105.4982,"MEAN_ANOMALY":254.629,"EPHEMERIS_TYPE":0,"CLASSIFICATION_TYPE":"U","NORAD_CAT_ID":68657,"ELEMENT_SET_NO":999,"REV_AT_EPOCH":2090,"BSTAR":-0.000002730048,"MEAN_MOTION_DOT":1.3e-7,"MEAN_MOTION_DDOT":0},{"OBJECT_NAME":"HULIANWANG DIGUI-166","OBJECT_ID":"2026-076C","EPOCH":"2026-09-12T07:03:54.864864","MEAN_MOTION":13.24408417,"ECCENTRICITY":0.00012737,"INCLINATION":86.4986,"RA_OF_ASC_NODE":14.3918,"ARG_OF_PERICENTER":105.4984,"MEAN_ANOMALY":254.629,"EPHEMERIS_TYPE":0,"CLASSIFICATION_TYPE":"U","NORAD_CAT_ID":68658,"ELEMENT_SET_NO":999,"REV_AT_EPOCH":2090,"BSTAR":0.000043499957,"MEAN_MOTION_DOT":3.3e-7,"MEAN_MOTION_DDOT":0},{"OBJECT_NAME":"HULIANWANG DIGUI-167","OBJECT_ID":"2026-076D","EPOCH":"2026-09-12T06:52:48.929088","MEAN_MOTION":13.24410234,"ECCENTRICITY":0.00012771,"INCLINATION":86.504,"RA_OF_ASC_NODE":14.4784,"ARG_OF_PERICENTER":105.7532,"MEAN_ANOMALY":254.3743,"EPHEMERIS_TYPE":0,"CLASSIFICATION_TYPE":"U","NORAD_CAT_ID":68659,"ELEMENT_SET_NO":999,"REV_AT_EPOCH":2090,"BSTAR":0.000062311383,"MEAN_MOTION_DOT":4.1e-7,"MEAN_MOTION_DDOT":0},{"OBJECT_NAME":"HULIANWANG DIGUI-168","OBJECT_ID":"2026-076E","EPOCH":"2026-09-12T06:42:06.536448","MEAN_MOTION":13.24407171,"ECCENTRICITY":0.00012619,"INCLINATION":86.5021,"RA_OF_ASC_NODE":14.4438,"ARG_OF_PERICENTER":105.8248,"MEAN_ANOMALY":254.3025,"EPHEMERIS_TYPE":0,"CLASSIFICATION_TYPE":"U","NORAD_CAT_ID":68660,"ELEMENT_SET_NO":999,"REV_AT_EPOCH":2089,"BSTAR":0.000061192709,"MEAN_MOTION_DOT":4.1e-7,"MEAN_MOTION_DDOT":0},{"OBJECT_NAME":"GUOWANG TEST OBJECT A","OBJECT_ID":"2026-120A","EPOCH":"2026-09-12T07:31:04.269504","MEAN_MOTION":15.19346113,"ECCENTRICITY":0.00113758,"INCLINATION":55.0124,"RA_OF_ASC_NODE":0.9568,"ARG_OF_PERICENTER":147.5643,"MEAN_ANOMALY":212.6078,"EPHEMERIS_TYPE":0,"CLASSIFICATION_TYPE":"U","NORAD_CAT_ID":69320,"ELEMENT_SET_NO":999,"REV_AT_EPOCH":1602,"BSTAR":0.0005453531,"MEAN_MOTION_DOT":0.00011374,"MEAN_MOTION_DDOT":0},{"OBJECT_NAME":"GUOWANG TEST OBJECT B","OBJECT_ID":"2026-120B","EPOCH":"2026-09-12T06:40:22.242144","MEAN_MOTION":15.3275292,"ECCENTRICITY":0.00093095,"INCLINATION":54.9988,"RA_OF_ASC_NODE":356.6595,"ARG_OF_PERICENTER":154.7261,"MEAN_ANOMALY":205.4221,"EPHEMERIS_TYPE":0,"CLASSIFICATION_TYPE":"U","NORAD_CAT_ID":69321,"ELEMENT_SET_NO":999,"REV_AT_EPOCH":1608,"BSTAR":0.00020617117,"MEAN_MOTION_DOT":0.00006251,"MEAN_MOTION_DDOT":0},{"OBJECT_NAME":"GUOWANG TEST OBJECT C","OBJECT_ID":"2026-120C","EPOCH":"2026-09-12T06:47:43.518048","MEAN_MOTION":15.37407399,"ECCENTRICITY":0.00107682,"INCLINATION":54.9982,"RA_OF_ASC_NODE":356.0044,"ARG_OF_PERICENTER":168.0867,"MEAN_ANOMALY":192.0417,"EPHEMERIS_TYPE":0,"CLASSIFICATION_TYPE":"U","NORAD_CAT_ID":69322,"ELEMENT_SET_NO":999,"REV_AT_EPOCH":1609,"BSTAR":0.00033037156,"MEAN_MOTION_DOT":0.00011931,"MEAN_MOTION_DDOT":0},{"OBJECT_NAME":"GUOWANG TEST OBJECT D","OBJECT_ID":"2026-120D","EPOCH":"2026-09-12T07:29:52.451232","MEAN_MOTION":15.19525257,"ECCENTRICITY":0.00116017,"INCLINATION":55.008,"RA_OF_ASC_NODE":0.2544,"ARG_OF_PERICENTER":177.4699,"MEAN_ANOMALY":182.6381,"EPHEMERIS_TYPE":0,"CLASSIFICATION_TYPE":"U","NORAD_CAT_ID":69323,"ELEMENT_SET_NO":999,"REV_AT_EPOCH":1603,"BSTAR":0.00017517792,"MEAN_MOTION_DOT":0.00003452,"MEAN_MOTION_DDOT":0},{"OBJECT_NAME":"HULIANWANG DIGUI-169","OBJECT_ID":"2026-137A","EPOCH":"2026-09-12T01:43:19.209504","MEAN_MOTION":13.29325975,"ECCENTRICITY":0.00001344,"INCLINATION":50.0012,"RA_OF_ASC_NODE":284.5288,"ARG_OF_PERICENTER":325.8383,"MEAN_ANOMALY":34.2481,"EPHEMERIS_TYPE":0,"CLASSIFICATION_TYPE":"U","NORAD_CAT_ID":69572,"ELEMENT_SET_NO":999,"REV_AT_EPOCH":1188,"BSTAR":0.00010063607,"MEAN_MOTION_DOT":-7.7e-7,"MEAN_MOTION_DDOT":0},{"OBJECT_NAME":"HULIANWANG DIGUI-170","OBJECT_ID":"2026-137B","EPOCH":"2026-09-11T18:18:19.010592","MEAN_MOTION":13.2932761,"ECCENTRICITY":0.00001316,"INCLINATION":50.0008,"RA_OF_ASC_NODE":285.5619,"ARG_OF_PERICENTER":319.4805,"MEAN_ANOMALY":40.6057,"EPHEMERIS_TYPE":0,"CLASSIFICATION_TYPE":"U","NORAD_CAT_ID":69573,"ELEMENT_SET_NO":999,"REV_AT_EPOCH":1185,"BSTAR":0.000087799308,"MEAN_MOTION_DOT":-8.3e-7,"MEAN_MOTION_DDOT":0},{"OBJECT_NAME":"HULIANWANG DIGUI-171","OBJECT_ID":"2026-137C","EPOCH":"2026-09-12T03:07:32.950272","MEAN_MOTION":13.29328324,"ECCENTRICITY":0.00006542,"INCLINATION":49.9969,"RA_OF_ASC_NODE":284.1353,"ARG_OF_PERICENTER":142.0456,"MEAN_ANOMALY":218.0462,"EPHEMERIS_TYPE":0,"CLASSIFICATION_TYPE":"U","NORAD_CAT_ID":69574,"ELEMENT_SET_NO":999,"REV_AT_EPOCH":1189,"BSTAR":0.00010007608,"MEAN_MOTION_DOT":-7.8e-7,"MEAN_MOTION_DDOT":0},{"OBJECT_NAME":"HULIANWANG DIGUI-172","OBJECT_ID":"2026-137D","EPOCH":"2026-09-12T02:55:32.045952","MEAN_MOTION":13.29326043,"ECCENTRICITY":0.00001657,"INCLINATION":49.9967,"RA_OF_ASC_NODE":284.0942,"ARG_OF_PERICENTER":314.6894,"MEAN_ANOMALY":45.3964,"EPHEMERIS_TYPE":0,"CLASSIFICATION_TYPE":"U","NORAD_CAT_ID":69575,"ELEMENT_SET_NO":999,"REV_AT_EPOCH":1189,"BSTAR":0.000086517914,"MEAN_MOTION_DOT":-8.4e-7,"MEAN_MOTION_DDOT":0},{"OBJECT_NAME":"HULIANWANG DIGUI-173","OBJECT_ID":"2026-137E","EPOCH":"2026-09-12T02:43:29.346240","MEAN_MOTION":13.29325944,"ECCENTRICITY":0.0000168,"INCLINATION":50.0027,"RA_OF_ASC_NODE":284.1048,"ARG_OF_PERICENTER":321.4662,"MEAN_ANOMALY":38.6198,"EPHEMERIS_TYPE":0,"CLASSIFICATION_TYPE":"U","NORAD_CAT_ID":69576,"ELEMENT_SET_NO":999,"REV_AT_EPOCH":1189,"BSTAR":0.000085138311,"MEAN_MOTION_DOT":-8.5e-7,"MEAN_MOTION_DDOT":0},{"OBJECT_NAME":"HULIANWANG DIGUI-174","OBJECT_ID":"2026-137F","EPOCH":"2026-09-12T07:56:14.604576","MEAN_MOTION":13.29324627,"ECCENTRICITY":0.0000196,"INCLINATION":50.0027,"RA_OF_ASC_NODE":283.2468,"ARG_OF_PERICENTER":322.6993,"MEAN_ANOMALY":37.3866,"EPHEMERIS_TYPE":0,"CLASSIFICATION_TYPE":"U","NORAD_CAT_ID":69577,"ELEMENT_SET_NO":999,"REV_AT_EPOCH":1193,"BSTAR":0.000007271323,"MEAN_MOTION_DOT":-0.00000121,"MEAN_MOTION_DDOT":0},{"OBJECT_NAME":"HULIANWANG DIGUI-175","OBJECT_ID":"2026-137G","EPOCH":"2026-09-12T02:19:25.048416","MEAN_MOTION":13.29327096,"ECCENTRICITY":0.00001465,"INCLINATION":49.9968,"RA_OF_ASC_NODE":283.9692,"ARG_OF_PERICENTER":330.485,"MEAN_ANOMALY":29.6014,"EPHEMERIS_TYPE":0,"CLASSIFICATION_TYPE":"U","NORAD_CAT_ID":69578,"ELEMENT_SET_NO":999,"REV_AT_EPOCH":1190,"BSTAR":0.00008284836,"MEAN_MOTION_DOT":-8.6e-7,"MEAN_MOTION_DDOT":0},{"OBJECT_NAME":"HULIANWANG DIGUI-176","OBJECT_ID":"2026-137H","EPOCH":"2026-09-12T02:07:24.743712","MEAN_MOTION":13.29324656,"ECCENTRICITY":0.00002265,"INCLINATION":50.0001,"RA_OF_ASC_NODE":283.9569,"ARG_OF_PERICENTER":315.0803,"MEAN_ANOMALY":45.0051,"EPHEMERIS_TYPE":0,"CLASSIFICATION_TYPE":"U","NORAD_CAT_ID":69579,"ELEMENT_SET_NO":999,"REV_AT_EPOCH":1189,"BSTAR":0.000081482423,"MEAN_MOTION_DOT":-8.6e-7,"MEAN_MOTION_DDOT":0},{"OBJECT_NAME":"HULIANWANG DIGUI-177","OBJECT_ID":"2026-137J","EPOCH":"2026-09-12T01:55:22.342944","MEAN_MOTION":13.29325654,"ECCENTRICITY":0.00001371,"INCLINATION":49.9981,"RA_OF_ASC_NODE":283.8968,"ARG_OF_PERICENTER":318.0369,"MEAN_ANOMALY":42.0493,"EPHEMERIS_TYPE":0,"CLASSIFICATION_TYPE":"U","NORAD_CAT_ID":69580,"ELEMENT_SET_NO":999,"REV_AT_EPOCH":1190,"BSTAR":0.000081080693,"MEAN_MOTION_DOT":-8.6e-7,"MEAN_MOTION_DDOT":0},{"OBJECT_NAME":"HULIANWANG DIGUI-178","OBJECT_ID":"2026-176A","EPOCH":"2026-09-12T07:11:41.047296","MEAN_MOTION":13.29328052,"ECCENTRICITY":0.00001937,"INCLINATION":49.9879,"RA_OF_ASC_NODE":253.6495,"ARG_OF_PERICENTER":346.2999,"MEAN_ANOMALY":13.7868,"EPHEMERIS_TYPE":0,"CLASSIFICATION_TYPE":"U","NORAD_CAT_ID":100203,"ELEMENT_SET_NO":999,"REV_AT_EPOCH":520,"BSTAR":0.000062462264,"MEAN_MOTION_DOT":-9.5e-7,"MEAN_MOTION_DDOT":0},{"OBJECT_NAME":"HULIANWANG DIGUI-179","OBJECT_ID":"2026-176B","EPOCH":"2026-09-12T06:59:43.344960","MEAN_MOTION":13.2932756,"ECCENTRICITY":0.00002053,"INCLINATION":49.9853,"RA_OF_ASC_NODE":253.6019,"ARG_OF_PERICENTER":343.2197,"MEAN_ANOMALY":16.8668,"EPHEMERIS_TYPE":0,"CLASSIFICATION_TYPE":"U","NORAD_CAT_ID":100204,"ELEMENT_SET_NO":999,"REV_AT_EPOCH":520,"BSTAR":0.000069257681,"MEAN_MOTION_DOT":-9.2e-7,"MEAN_MOTION_DDOT":0},{"OBJECT_NAME":"HULIANWANG DIGUI-180","OBJECT_ID":"2026-176C","EPOCH":"2026-09-12T01:22:50.244672","MEAN_MOTION":13.29326548,"ECCENTRICITY":0.00001701,"INCLINATION":49.9898,"RA_OF_ASC_NODE":254.3794,"ARG_OF_PERICENTER":357.0843,"MEAN_ANOMALY":3.0028,"EPHEMERIS_TYPE":0,"CLASSIFICATION_TYPE":"U","NORAD_CAT_ID":100205,"ELEMENT_SET_NO":999,"REV_AT_EPOCH":517,"BSTAR":-0.000033671982,"MEAN_MOTION_DOT":-0.0000014,"MEAN_MOTION_DDOT":0}]